Find Starlink 32702

NORAD ID: 62432 Int'l Des: 2024-251 Owner: SPXS Country: US Constellation: starlink operational
LEOCIRCULAR

現在のビュー

3D地球を読み込み中...

About Starlink 32702

Starlink 32702 (NORAD 62432) is a starlink constellation satellite (v2 mini) launched Dec 29, 2024 by SPXS of US. It operates in LEO, CIRCULAR orbit with a mass of 730.00 kg.

Starlink 32702について

説明を読み込み中...

次回通過

Passes for default location (London). Set your location on the main map for personalized predictions.

高度履歴

Loading altitude history...

軌道要素

1 62432U 24251A 26169.43735657 .00008140 00000-0 28666-3 0 9999
2 62432 53.1577 224.4818 0001330 100.7523 259.3627 15.30198692 83415
Epoch: Jun 18, 2026 • Age: 24 hours

現在のステータス

高度 479.6 km
速度 7.63 km/s
衛星直下点 47.13°N, 148.86°W
打ち上げ日 Dec 29, 2024
運用期間 1.4 years
タイプ internet

技術仕様

分類 Payload
質量 730.00 kg
乾燥質量 700.00 kg
総質量 730.00 kg
長さ 0.30 m
直径 4.10 m
スパン 29.00 m
形状 Box + pan
製造者 SPXS
バスタイプ Starlink V2M
フェーズステータス In Orbit
所有者/国 SPXS/US

Most Searched